Погода в Вязье

Россия / Псковская область     57°38′12″N   29°49′29″E
темп.,
°C
ветер,
м/с
пор.,
м/с
влажн.,
%
обл.,
%
осадки,
мм/ч
давл.,
гПа
погр.,
м
13 апреля, вт
вт1300:00+9ююв31172100 0.0 1021277
03:00+8ююв31081100 0.0 1020265
06:00+6ююв23935 0.0 102066
09:00+11ю24729 0.0 1020302
12:00+16ю245116 0.0 1020971
15:00+17ю2345100 0.0 10191662
18:00+15сз1260100 0.0 1018155
21:00+10ссз3684100 0.0 1019247
14 апреля, ср
ср1400:00+6ссз3791100 2.4 1018303
03:00+5ссз3793100 7.5 1017351
06:00+3ссз4993100 3.0 1018443
09:00+2с3994100 6.4 1019432
12:00+3с3990100 0.9 1020445
15:00+3с3987100 1.6 1020481
18:00+3с31088100 0.9 1021527
21:00+4ссв31182100 1.1 1022560
15 апреля, чт
чт1500:00+4ссв3128393 0.0 1022541
03:00+4ссв41281100 0.0 1022561
06:00+3ссв51379100 0.0 1022530
09:00+4ссв51380100 0.0 1023625
12:00+5ссв5128088 0.1 1023630
15:00+8св51070100 0.1 1023948
18:00+9св51168100 0.0 1023880
21:00
16 апреля, пт
пт1600:00+6св51276100 0.0 1024741
03:00+5св41179100 0.0 1024588
06:00+4св41184100 0.0 1025466
09:00+5св51174100 0.0 1025541
12:00+9св696083 0.0 1025838
15:00+12св684978 0.0 10251123
18:00+11св5104467 0.0 10251087
21:00+6св312645 0.0 1028354
17 апреля, сб
сб1700:00+5всв4136610 0.0 1028508
03:00+4св4127641 0.0 1029389
06:00+2св412805 0.0 1030354
09:00+6всв510615 0.0 1031535
12:00+11всв584359 0.0 10311095
15:00+12всв573960 0.0 10311367
18:00+12всв47485 0.0 10311388
21:00+6всв29725 0.0 1032172